Погода в Усть-Чорне

Украина / Закарпатская область     48°19′08″N   23°56′33″E
В апреле 2022 года жителям России запретили посещать сайт meteo.paraplan.net по решению Генеральной прокуратуры. Аудитория сайта уменьшилась в 10 раз. Владельцы сайта не видят смысла в поддержке погодного сервера в таких условиях. Сайт будет закрыт в октябре.
темп.,
°C
ветер,
м/с
пор.,
м/с
влажн.,
%
обл.,
%
осадки,
мм/ч
давл.,
гПа
погр.,
м
25 сентября, вс
вс2500:00+5юв1192100 0.0 102026
03:00+4вюв119091 0.0 102014
06:00+3вюв1192100 0.0 101914
09:00+7ююв128097 0.0 1019111
12:00+10ю226291 0.0 1018505
15:00+8ююз1284100 0.2 1018120
18:00+8ю1289100 0.2 1017142
21:00+7ююв1289100 0.2 101641
26 сентября, пн
пн2600:00+5ююв118793 0.0 101512
03:00+6юв1187100 0.0 101418
06:00+7ююв1285100 0.0 101351
09:00+7ссз0192100 0.9 101232
12:00+7ююв1294100 1.3 101278
15:00+8ю1292100 1.6 101185
18:00+8ю1399100 2.1 1010152
21:00+8ююв1299100 2.6 1009106
27 сентября, вт
вт2700:00+9вюв1199100 1.3 100743
03:00+9вюв1199100 3.1 100524
06:00+9зюз12100100 1.3 100367
09:00+9ююз12100100 3.5 1002124
12:00+9сз1299100 5.1 1003181
15:00+11ююз229196 6.1 1002496
18:00+9ююз2399100 1.9 1002191
21:00+8ююз1399100 2.4 1003145
28 сентября, ср
ср2800:00+7ю119880 0.3 100318
03:00+8ююз13100100 1.3 1003189
06:00+8юз23100100 1.6 1003231
09:00+8юз22100100 3.8 1004146
12:00+8юз229993 0.7 1005197
15:00+10юз248790 1.4 1005756
18:00+9ююз128846 0.1 1005262
21:00+6юв119495 0.1 100714
29 сентября, чт
чт2900:00+7юв1191100 0.0 100726
03:00+7вюв1191100 0.0 100716
06:00+8в1190100 0.0 100616
09:00+10юв1288100 0.1 100669
12:00+9юв1397100 1.2 1007165
15:00+10юв1297100 2.3 100799
18:00+11ююв1395100 0.0 1008226
21:00+9юв119797 0.3 100915